VISION2 KJAX-KISM

Flight info

Callsign VISION2
Flight time N/A
Altitude 15000
Route EXBOX2 EXBOX PRMUS FORYU SNFLD3
Aircraft SF50/L-BGS/L

Departure

Time 2026-05-03 23:34
Airport Jacksonville International Airport (KJAX)

Arrival

Time N/A
Airport Kissimmee Gateway Airport (KISM)
Time Latitude Longitude Altitude Speed Heading
2026-05-03 23:19 30.49728 -81.67840 31 ft 0 kts 284°
2026-05-03 23:28 30.49736 -81.67833 31 ft 2 kts 59°
2026-05-03 23:28 30.49773 -81.67809 31 ft 10 kts 24°
2026-05-03 23:29 30.49824 -81.67828 31 ft 7 kts 296°
2026-05-03 23:29 30.49836 -81.67877 30 ft 7 kts 284°
2026-05-03 23:29 30.49885 -81.67916 30 ft 12 kts 340°
2026-05-03 23:29 30.49978 -81.67954 31 ft 15 kts 343°
2026-05-03 23:30 30.50043 -81.68036 32 ft 16 kts 255°
2026-05-03 23:30 30.50006 -81.68167 33 ft 18 kts 251°
2026-05-03 23:30 30.49962 -81.68315 30 ft 21 kts 250°
2026-05-03 23:30 30.49914 -81.68473 31 ft 19 kts 249°
2026-05-03 23:31 30.49874 -81.68601 32 ft 16 kts 254°
2026-05-03 23:31 30.49838 -81.68717 32 ft 14 kts 251°
2026-05-03 23:31 30.49809 -81.68816 33 ft 12 kts 253°
2026-05-03 23:31 30.49780 -81.68906 35 ft 14 kts 251°
2026-05-03 23:32 30.49739 -81.69040 34 ft 22 kts 250°
2026-05-03 23:32 30.49680 -81.69227 36 ft 24 kts 250°
2026-05-03 23:32 30.49623 -81.69404 35 ft 22 kts 250°
2026-05-03 23:32 30.49579 -81.69564 34 ft 20 kts 250°
2026-05-03 23:33 30.49535 -81.69708 31 ft 19 kts 250°
2026-05-03 23:33 30.49493 -81.69848 28 ft 18 kts 248°
2026-05-03 23:33 30.49405 -81.69923 29 ft 16 kts 194°
2026-05-03 23:33 30.49305 -81.69982 30 ft 18 kts 219°
2026-05-03 23:34 30.49195 -81.70033 32 ft 17 kts 152°
2026-05-03 23:34 30.49034 -81.69831 33 ft 62 kts 131°
2026-05-03 23:34 30.48639 -81.69296 170 ft 109 kts 130°
2026-05-03 23:34 30.48033 -81.68555 748 ft 138 kts 125°
2026-05-03 23:35 30.47452 -81.67724 1578 ft 133 kts 128°
2026-05-03 23:35 30.46808 -81.66878 2205 ft 145 kts 129°
2026-05-03 23:35 30.46113 -81.65977 2811 ft 157 kts 131°
2026-05-03 23:35 30.45324 -81.64986 3228 ft 176 kts 134°
2026-05-03 23:36 30.44382 -81.64133 4040 ft 170 kts 144°
2026-05-03 23:36 30.43405 -81.63351 4699 ft 176 kts 146°
2026-05-03 23:36 30.42402 -81.62522 5401 ft 177 kts 142°
2026-05-03 23:36 30.41418 -81.61639 6048 ft 182 kts 144°
2026-05-03 23:37 30.40366 -81.60773 6633 ft 187 kts 146°
2026-05-03 23:37 30.39307 -81.59882 7250 ft 190 kts 144°
2026-05-03 23:37 30.38259 -81.58948 7920 ft 187 kts 144°
2026-05-03 23:37 30.37205 -81.58087 8604 ft 185 kts 149°
2026-05-03 23:38 30.36135 -81.57240 9210 ft 189 kts 148°
2026-05-03 23:38 30.35062 -81.56310 9793 ft 195 kts 146°
2026-05-03 23:38 30.33968 -81.55341 10308 ft 201 kts 147°
2026-05-03 23:38 30.32839 -81.54387 10887 ft 199 kts 150°
2026-05-03 23:39 30.31679 -81.53456 11363 ft 205 kts 150°
2026-05-03 23:39 30.30518 -81.52513 11946 ft 204 kts 151°
2026-05-03 23:39 30.29353 -81.51558 12475 ft 207 kts 150°
2026-05-03 23:39 30.28215 -81.50570 13012 ft 208 kts 149°
2026-05-03 23:40 30.27057 -81.49543 13550 ft 209 kts 151°
2026-05-03 23:40 30.25899 -81.48536 14059 ft 212 kts 152°
2026-05-03 23:40 30.24653 -81.47528 14302 ft 226 kts 153°
2026-05-03 23:40 30.23323 -81.46449 14472 ft 241 kts 153°
2026-05-03 23:41 30.21940 -81.45293 14786 ft 246 kts 151°
2026-05-03 23:41 30.20555 -81.44106 15040 ft 253 kts 152°
2026-05-03 23:41 30.19095 -81.42873 15051 ft 266 kts 151°
2026-05-03 23:41 30.17564 -81.41604 15023 ft 275 kts 152°
2026-05-03 23:42 30.15993 -81.40302 15027 ft 280 kts 151°
2026-05-03 23:42 30.14390 -81.38978 14962 ft 286 kts 151°
2026-05-03 23:42 30.12770 -81.37638 14995 ft 287 kts 151°
2026-05-03 23:42 30.11165 -81.36293 14984 ft 289 kts 152°
2026-05-03 23:43 30.09532 -81.34924 15001 ft 290 kts 152°
2026-05-03 23:43 30.07888 -81.33555 15003 ft 292 kts 152°
2026-05-03 23:43 30.06240 -81.32179 15004 ft 293 kts 152°
2026-05-03 23:43 30.04584 -81.30796 15006 ft 294 kts 152°
2026-05-03 23:44 30.02922 -81.29413 15006 ft 295 kts 152°
2026-05-03 23:44 30.01262 -81.28032 15036 ft 293 kts 153°
2026-05-03 23:44 29.99593 -81.26670 15040 ft 294 kts 153°
2026-05-03 23:44 29.97923 -81.25289 15039 ft 299 kts 152°
2026-05-03 23:45 29.96220 -81.23867 15044 ft 302 kts 152°
2026-05-03 23:45 29.94523 -81.22447 15044 ft 301 kts 152°
2026-05-03 23:45 29.92828 -81.21038 15043 ft 300 kts 152°
2026-05-03 23:45 29.91137 -81.19633 15041 ft 299 kts 152°
2026-05-03 23:46 29.89448 -81.18228 15039 ft 299 kts 152°
2026-05-03 23:46 29.87779 -81.16847 15037 ft 296 kts 153°
2026-05-03 23:46 29.86062 -81.15524 15035 ft 295 kts 154°
2026-05-03 23:46 29.84352 -81.14222 15033 ft 293 kts 155°
2026-05-03 23:47 29.82550 -81.13220 15030 ft 283 kts 169°
2026-05-03 23:47 29.80667 -81.12688 15029 ft 274 kts 181°
2026-05-03 23:47 29.78816 -81.12597 15025 ft 266 kts 191°
2026-05-03 23:47 29.76986 -81.12804 15027 ft 263 kts 194°
2026-05-03 23:48 29.75155 -81.12995 15024 ft 264 kts 194°
2026-05-03 23:48 29.73326 -81.13185 15023 ft 263 kts 194°
2026-05-03 23:48 29.71508 -81.13383 15026 ft 254 kts 194°
2026-05-03 23:48 29.69945 -81.13583 15006 ft 198 kts 204°
2026-05-03 23:49 29.68853 -81.14274 14603 ft 169 kts 229°
2026-05-03 23:49 29.68286 -81.15337 14351 ft 147 kts 253°
2026-05-03 23:49 29.67813 -81.16313 14155 ft 137 kts 237°
2026-05-03 23:49 29.67209 -81.17134 13888 ft 133 kts 237°
2026-05-03 23:50 29.66653 -81.17948 13651 ft 126 kts 239°
2026-05-03 23:50 29.66298 -81.18478 13449 ft 127 kts 238°
2026-05-03 23:50 29.65289 -81.19265 12908 ft 148 kts 209°
2026-05-03 23:50 29.64253 -81.19537 12506 ft 155 kts 202°
2026-05-03 23:51 29.63160 -81.19803 12052 ft 160 kts 205°
2026-05-03 23:51 29.62073 -81.20139 11561 ft 161 kts 193°
2026-05-03 23:51 29.60989 -81.20573 10800 ft 166 kts 194°
2026-05-03 23:51 29.59906 -81.21059 10098 ft 169 kts 193°
2026-05-03 23:52 29.58752 -81.21423 9378 ft 173 kts 181°
2026-05-03 23:52 29.57551 -81.21539 8715 ft 173 kts 171°
2026-05-03 23:52 29.56335 -81.21499 7896 ft 179 kts 167°
2026-05-03 23:52 29.55105 -81.21599 7072 ft 179 kts 184°
2026-05-03 23:53 29.54055 -81.22337 6411 ft 179 kts 234°
2026-05-03 23:53 29.53377 -81.23481 6002 ft 172 kts 237°
2026-05-03 23:53 29.52692 -81.24569 5730 ft 163 kts 234°
2026-05-03 23:53 29.52057 -81.25549 5541 ft 143 kts 235°
2026-05-03 23:54 29.51496 -81.26427 5187 ft 135 kts 234°
2026-05-03 23:54 29.50940 -81.27315 4711 ft 139 kts 234°
2026-05-03 23:54 29.50405 -81.28226 4338 ft 135 kts 234°
2026-05-03 23:54 29.49872 -81.29063 4091 ft 126 kts 232°
2026-05-03 23:55 29.49357 -81.29840 3879 ft 119 kts 232°
2026-05-03 23:55 29.48856 -81.30583 3665 ft 116 kts 231°
2026-05-03 23:55 29.48292 -81.31224 3414 ft 114 kts 199°
2026-05-03 23:55 29.47523 -81.31275 3113 ft 112 kts 162°
2026-05-03 23:56 29.46835 -81.30924 2826 ft 111 kts 144°
2026-05-03 23:56 29.46153 -81.30501 2565 ft 111 kts 144°
2026-05-03 23:56 29.45480 -81.30072 2334 ft 109 kts 143°
2026-05-03 23:56 29.44846 -81.29617 2111 ft 106 kts 142°
2026-05-03 23:57 29.44216 -81.29164 1883 ft 111 kts 143°
2026-05-03 23:57 29.43579 -81.28658 1708 ft 112 kts 128°
2026-05-03 23:57 29.43219 -81.27890 1504 ft 112 kts 99°
2026-05-03 23:57 29.43188 -81.26993 1303 ft 113 kts 84°
2026-05-03 23:58 29.43337 -81.26124 1163 ft 109 kts 70°
2026-05-03 23:58 29.43610 -81.25325 1004 ft 108 kts 63°
2026-05-03 23:58 29.43992 -81.24579 763 ft 109 kts 54°
2026-05-03 23:58 29.44441 -81.23862 652 ft 109 kts 53°
2026-05-03 23:59 29.44866 -81.23157 493 ft 107 kts 52°
2026-05-03 23:59 29.45259 -81.22544 361 ft 85 kts 51°
2026-05-03 23:59 29.45594 -81.22002 212 ft 82 kts 53°
2026-05-03 23:59 29.45919 -81.21468 98 ft 82 kts 51°
2026-05-04 00:00 29.46226 -81.20982 32 ft 65 kts 51°
2026-05-04 00:00 29.46453 -81.20621 38 ft 51 kts 51°
2026-05-04 00:00 29.46645 -81.20308 36 ft 44 kts 56°
2026-05-04 00:00 29.46774 -81.20152 34 ft 18 kts 339°
2026-05-04 00:01 29.46857 -81.20209 32 ft 13 kts 316°
2026-05-04 00:01 29.46953 -81.20480 34 ft 72 kts 287°
2026-05-04 00:01 29.47092 -81.21027 41 ft 23 kts 297°
2026-05-04 00:01 29.47109 -81.21049 42 ft 22 kts 326°